,,Stat5,,Stat1,,Stat2,,Stat3,,Stat4,,Wind1,,Wind1,
time,status,PA1M_AVG,status,PR1M_SUM,status,RH1M_AVG,status,SR1M_AVG,status,TA1M_AVG,status,W1dAve1m,status,W1sAve1m,
2001-12-31, 00:00:01,VALID,919.607,VALID,0,VALID,93.8152,VALID,0.0169808,VALID,19.8312,VALID,130,VALID,0.888889,
2001-12-31, 00:01:01,VALID,919.607,VALID,0,VALID,93.852,VALID,0,VALID,19.8349,VALID,123,VALID,0.947917,
2001-12-31, 00:02:01,VALID,919.589,VALID,0,VALID,93.8177,VALID,-0.0169808,VALID,19.8123,VALID,138,VALID,1.47372,
2001-12-31, 00:03:00,VALID,919.558,VALID,0,VALID,93.7834,VALID,-0.0169808,VALID,19.8058,VALID,125,VALID,1.13715,
2001-12-31, 00:04:00,VALID,919.539,VALID,0,VALID,93.8851,VALID,0,VALID,19.8061,VALID,116,VALID,0.961167,
2001-12-31, 00:05:00,VALID,919.502,VALID,0,VALID,93.8177,VALID,0,VALID,19.8058,VALID,123,VALID,1.20291,
2001-12-31, 00:06:00,VALID,919.481,VALID,0,VALID,93.646,VALID,0,VALID,19.8093,VALID,116,VALID,1.33676,
2001-12-31, 00:07:00,VALID,919.456,VALID,0,VALID,93.3383,VALID,0,VALID,19.8287,VALID,86,VALID,1.45524,
2001-12-31, 00:08:00,VALID,919.445,VALID,0,VALID,93.3103,VALID,0,VALID,19.8583,VALID,87,VALID,1.02364,
2001-12-31, 00:09:00,VALID,919.428,VALID,0,VALID,93.304,VALID,-0.0169808,VALID,19.8642,VALID,103,VALID,0.652679,
2001-12-31, 00:10:00,VALID,919.412,VALID,0,VALID,93.3599,VALID,0,VALID,19.8839,VALID,104,VALID,0.734375,
2001-12-31, 00:11:00,VALID,919.407,VALID,0,VALID,93.332,VALID,0,VALID,19.8675,VALID,81,VALID,0.711806,
2001-12-31, 00:12:00,VALID,919.397,VALID,0,VALID,93.2048,VALID,0,VALID,19.8739,VALID,117,VALID,1.26789,
2001-12-31, 00:13:00,VALID,919.39,VALID,0,VALID,93.1476,VALID,-0.0339617,VALID,19.8709,VALID,99,VALID,0.731771,
2001-12-31, 00:14:00,VALID,919.396,VALID,0,VALID,93.0547,VALID,0.0169808,VALID,19.8871,VALID,109,VALID,0.874023,
2001-12-31, 00:15:00,VALID,919.408,VALID,0,VALID,92.9835,VALID,0,VALID,19.8935,VALID,63,VALID,0.650338,
2001-12-31, 00:16:00,VALID,919.431,VALID,0,VALID,92.9479,VALID,-0.0169808,VALID,19.9095,VALID,100,VALID,0.902734,
2001-12-31, 00:17:00,VALID,919.434,VALID,0,VALID,92.8856,VALID,0,VALID,19.906,VALID,108,VALID,0.720553,
2001-12-31, 00:18:00,VALID,919.453,VALID,0,VALID,92.8933,VALID,0,VALID,19.9229,VALID,122,VALID,0.787829,
2001-12-31, 00:19:00,VALID,919.439,VALID,0,VALID,92.939,VALID,-0.0169808,VALID,19.9162,VALID,132,VALID,0.984976,
2001-12-31, 00:20:00,VALID,919.427,VALID,0,VALID,92.9467,VALID,0,VALID,19.9097,VALID,126,VALID,1.02488,
2001-12-31, 00:21:00,VALID,919.423,VALID,0,VALID,93.0293,VALID,-0.0169808,VALID,19.9102,VALID,114,VALID,0.83774,
2001-12-31, 00:22:00,VALID,919.402,VALID,0,VALID,93.0242,VALID,0,VALID,19.9,VALID,126,VALID,0.870703,
2001-12-31, 00:23:00,VALID,919.404,VALID,0,VALID,92.9874,VALID,0,VALID,19.8898,VALID,134,VALID,0.858742,
2001-12-31, 00:24:00,VALID,919.373,VALID,0,VALID,92.9607,VALID,-0.0169808,VALID,19.8903,VALID,138,VALID,1.08711,
2001-12-31, 00:25:00,VALID,919.355,VALID,0,VALID,92.8945,VALID,-0.0679233,VALID,19.8975,VALID,139,VALID,0.565705,
2001-12-31, 00:26:00,VALID,919.34,VALID,0,VALID,92.9543,VALID,-0.0169808,VALID,19.9199,VALID,141,VALID,0.670436,
2001-12-31, 00:27:00,VALID,919.309,VALID,0,VALID,92.939,VALID,-0.0339617,VALID,19.9264,VALID,136,VALID,0.764824,
2001-12-31, 00:28:00,VALID,919.282,VALID,0,VALID,92.906,VALID,0,VALID,19.9231,VALID,140,VALID,0.798109,
2001-12-31, 00:29:00,VALID,919.264,VALID,0,VALID,92.8831,VALID,0,VALID,19.8993,VALID,145,VALID,0.893429,
2001-12-31, 00:30:00,VALID,919.246,VALID,0,VALID,92.8996,VALID,0,VALID,19.9032,VALID,140,VALID,0.958008,
2001-12-31, 00:31:00,VALID,919.224,VALID,0,VALID,93.1031,VALID,-0.0169808,VALID,19.9132,VALID,137,VALID,0.663218,
2001-12-31, 00:32:00,VALID,919.209,VALID,0,VALID,93.2226,VALID,0,VALID,19.9199,VALID,136,VALID,0.549023,
2001-12-31, 00:33:00,VALID,919.189,VALID,0,VALID,93.1883,VALID,0,VALID,19.9062,VALID,140,VALID,0.741587,
2001-12-31, 00:34:00,VALID,919.176,VALID,0,VALID,93.0497,VALID,-0.0169808,VALID,19.8901,VALID,138,VALID,0.970395,
2001-12-31, 00:35:00,VALID,919.16,VALID,0,VALID,92.7127,VALID,0,VALID,19.8973,VALID,120,VALID,1.14984,
2001-12-31, 00:36:00,VALID,919.141,VALID,0,VALID,92.7572,VALID,-0.0169808,VALID,19.9008,VALID,122,VALID,0.817023,
2001-12-31, 00:37:00,VALID,919.129,VALID,0,VALID,92.9581,VALID,-0.0509425,VALID,19.9142,VALID,134,VALID,0.724559,
2001-12-31, 00:38:00,VALID,919.114,VALID,0,VALID,92.8933,VALID,-0.0679233,VALID,19.8946,VALID,124,VALID,0.915625,
2001-12-31, 00:39:00,VALID,919.091,VALID,0,VALID,92.8945,VALID,-0.0339617,VALID,19.8849,VALID,108,VALID,1.04751,
2001-12-31, 00:40:00,VALID,919.073,VALID,0,VALID,92.9136,VALID,-0.0339617,VALID,19.8854,VALID,131,VALID,0.801758,
2001-12-31, 00:41:00,VALID,919.063,VALID,0,VALID,92.995,VALID,-0.0509425,VALID,19.8752,VALID,134,VALID,1.03686,
2001-12-31, 00:42:00,VALID,919.041,VALID,0,VALID,92.9772,VALID,-0.0169808,VALID,19.8523,VALID,127,VALID,1.01891,
2001-12-31, 00:43:00,VALID,919.052,VALID,0,VALID,93.1756,VALID,0,VALID,19.8523,VALID,107,VALID,0.46234,
2001-12-31, 00:44:00,VALID,919.044,VALID,0,VALID,93.3269,VALID,-0.0169808,VALID,19.8496,VALID,106,VALID,0.836554,
2001-12-31, 00:45:00,VALID,919.036,VALID,0,VALID,93.3434,VALID,0,VALID,19.817,VALID,125,VALID,0.995192,
2001-12-31, 00:46:00,VALID,919.04,VALID,0,VALID,93.4769,VALID,-0.0169808,VALID,19.8011,VALID,121,VALID,0.906836,
2001-12-31, 00:47:00,VALID,919.033,VALID,0,VALID,93.6956,VALID,-0.0849042,VALID,19.775,VALID,127,VALID,0.710304,
2001-12-31, 00:48:00,VALID,919.022,VALID,0,VALID,93.7325,VALID,-0.0509425,VALID,19.7658,VALID,140,VALID,1.03086,
2001-12-31, 00:49:00,VALID,919.026,VALID,0,VALID,93.7656,VALID,0,VALID,19.7325,VALID,154,VALID,1.16006,
2001-12-31, 00:50:00,VALID,919.018,VALID,0,VALID,93.9093,VALID,-0.0509425,VALID,19.7072,VALID,136,VALID,0.952508,
2001-12-31, 00:51:00,VALID,919.025,VALID,0.2,VALID,94.1394,VALID,-0.0169808,VALID,19.6948,VALID,133,VALID,0.562901,
2001-12-31, 00:52:00,VALID,919.018,VALID,0,VALID,94.2806,VALID,0,VALID,19.7017,VALID,144,VALID,0.907278,
2001-12-31, 00:53:00,VALID,919.018,VALID,0,VALID,94.2933,VALID,-0.0169808,VALID,19.6488,VALID,147,VALID,1.01062,
2001-12-31, 00:54:00,VALID,919.01,VALID,0,VALID,94.3696,VALID,0,VALID,19.6398,VALID,160,VALID,0.95957,
2001-12-31, 00:55:00,VALID,918.993,VALID,0,VALID,94.3887,VALID,-0.0339617,VALID,19.6334,VALID,150,VALID,1.19954,
2001-12-31, 00:56:00,VALID,918.989,VALID,0,VALID,94.3899,VALID,-0.0169808,VALID,19.6274,VALID,146,VALID,1.14063,
2001-12-31, 00:57:00,VALID,918.971,VALID,0,VALID,94.4014,VALID,-0.0169808,VALID,19.6108,VALID,134,VALID,1.08073,
2001-12-31, 00:58:00,VALID,918.951,VALID,0,VALID,94.4904,VALID,-0.0339617,VALID,19.611,VALID,150,VALID,1.10074,
2001-12-31, 00:59:00,VALID,918.925,VALID,0,VALID,94.4624,VALID,-0.0339617,VALID,19.5812,VALID,151,VALID,0.832933,
2001-12-31, 01:00:00,VALID,918.904,VALID,0,VALID,94.4713,VALID,-0.0169808,VALID,19.5946,VALID,146,VALID,0.978618,
2001-12-31, 01:01:00,VALID,918.87,VALID,0,VALID,94.5171,VALID,-0.0169808,VALID,19.5983,VALID,123,VALID,0.616186,
2001-12-31, 01:02:00,VALID,918.852,VALID,0,VALID,94.5947,VALID,0,VALID,19.5822,VALID,157,VALID,0.364062,
2001-12-31, 01:03:00,VALID,918.826,VALID,0,VALID,94.5985,VALID,-0.0169808,VALID,19.5688,VALID,121,VALID,0.724662,
2001-12-31, 01:04:00,VALID,918.803,VALID,0,VALID,94.6277,VALID,-0.0339617,VALID,19.5464,VALID,122,VALID,0.516992,
2001-12-31, 01:05:00,VALID,918.778,VALID,0,VALID,94.7765,VALID,-0.0679233,VALID,19.5335,VALID,113,VALID,0.266627,
2001-12-31, 01:06:00,VALID,918.75,VALID,0,VALID,94.8782,VALID,-0.0509425,VALID,19.524,VALID,125,VALID,0.407278,
2001-12-31, 01:07:00,VALID,918.724,VALID,0,VALID,94.8795,VALID,-0.0169808,VALID,19.4945,VALID,137,VALID,0.591146,
2001-12-31, 01:08:00,VALID,918.718,VALID,0,VALID,95.0613,VALID,-0.0169808,VALID,19.4786,VALID,91,VALID,0.431949,
2001-12-31, 01:09:00,VALID,918.698,VALID,0,VALID,95.1376,VALID,-0.0169808,VALID,19.4592,VALID,118,VALID,0.53145,
2001-12-31, 01:10:00,VALID,918.686,VALID,0,VALID,95.1567,VALID,-0.0509425,VALID,19.4564,VALID,109,VALID,0.232227,
2001-12-31, 01:11:00,VALID,918.69,VALID,0,VALID,95.2991,VALID,0,VALID,19.4363,VALID,77,VALID,0.358742,
2001-12-31, 01:12:00,VALID,918.69,VALID,0,VALID,95.3462,VALID,0,VALID,19.4232,VALID,79,VALID,0.19707,
2001-12-31, 01:13:00,VALID,918.704,VALID,0,VALID,95.3958,VALID,-0.0509425,VALID,19.4271,VALID,55,VALID,0,
2001-12-31, 01:14:00,VALID,918.705,VALID,0,VALID,95.4581,VALID,0,VALID,19.4142,VALID,89,VALID,0.248972,
2001-12-31, 01:15:00,VALID,918.703,VALID,0,VALID,95.4644,VALID,0,VALID,19.3913,VALID,141,VALID,0.372796,
2001-12-31, 01:16:00,VALID,918.7,VALID,0,VALID,95.4594,VALID,-0.0169808,VALID,19.3849,VALID,151,VALID,0.356908,
2001-12-31, 01:17:00,VALID,918.703,VALID,0,VALID,95.5573,VALID,-0.0169808,VALID,19.366,VALID,144,VALID,0.524609,
2001-12-31, 01:18:00,VALID,918.703,VALID,0,VALID,95.5674,VALID,-0.0339617,VALID,19.366,VALID,139,VALID,0.622266,
2001-12-31, 01:19:00,VALID,918.693,VALID,0,VALID,95.6272,VALID,-0.0679233,VALID,19.3662,VALID,150,VALID,0.587416,
2001-12-31, 01:20:00,VALID,918.699,VALID,0,VALID,95.5954,VALID,-0.0169808,VALID,19.3595,VALID,146,VALID,0.689648,
2001-12-31, 01:21:00,VALID,918.694,VALID,0,VALID,95.6107,VALID,-0.0169808,VALID,19.3528,VALID,138,VALID,0.909255,
2001-12-31, 01:22:00,VALID,918.689,VALID,0,VALID,95.6158,VALID,0.0169808,VALID,19.3451,VALID,134,VALID,0.675781,
2001-12-31, 01:23:00,VALID,918.691,VALID,0,VALID,95.6603,VALID,0,VALID,19.3387,VALID,131,VALID,0.517829,
2001-12-31, 01:24:00,VALID,918.685,VALID,0,VALID,95.687,VALID,0.0169808,VALID,19.332,VALID,135,VALID,0.654811,
2001-12-31, 01:25:00,VALID,918.672,VALID,0,VALID,95.7277,VALID,0,VALID,19.332,VALID,137,VALID,0.613982,
2001-12-31, 01:26:00,VALID,918.67,VALID,0,VALID,95.7582,VALID,0.0169808,VALID,19.3258,VALID,141,VALID,0.860352,
2001-12-31, 01:27:00,VALID,918.669,VALID,0,VALID,95.7925,VALID,0,VALID,19.326,VALID,143,VALID,0.925887,
2001-12-31, 01:28:00,VALID,918.677,VALID,0,VALID,95.8116,VALID,0.0169808,VALID,19.3258,VALID,151,VALID,0.857227,
2001-12-31, 01:29:00,VALID,918.674,VALID,0,VALID,95.7887,VALID,-0.0169808,VALID,19.3228,VALID,153,VALID,1.02644,
2001-12-31, 01:30:00,VALID,918.667,VALID,0,VALID,95.7569,VALID,0.0169808,VALID,19.3325,VALID,154,VALID,1.05428,
2001-12-31, 01:31:00,VALID,918.662,VALID,0,VALID,95.706,VALID,0.0169808,VALID,19.3486,VALID,151,VALID,0.861979,
2001-12-31, 01:32:00,VALID,918.651,VALID,0,VALID,95.6476,VALID,0.0169808,VALID,19.3451,VALID,145,VALID,0.608141,
2001-12-31, 01:33:00,VALID,918.647,VALID,0,VALID,95.659,VALID,0.0339617,VALID,19.3578,VALID,139,VALID,0.445713,
2001-12-31, 01:34:00,VALID,918.657,VALID,0,VALID,95.7111,VALID,0,VALID,19.3518,VALID,150,VALID,0.508984,
2001-12-31, 01:35:00,VALID,918.653,VALID,0,VALID,95.6971,VALID,0,VALID,19.3687,VALID,152,VALID,0.798775,
2001-12-31, 01:36:00,VALID,918.652,VALID,0,VALID,95.7315,VALID,-0.0169808,VALID,19.3461,VALID,154,VALID,0.380273,
2001-12-31, 01:37:00,VALID,918.645,VALID,0,VALID,95.804,VALID,-0.0849042,VALID,19.3401,VALID,117,VALID,0.479768,
2001-12-31, 01:38:00,VALID,918.644,VALID,0,VALID,95.748,VALID,-0.0849042,VALID,19.3501,VALID,126,VALID,0.448602,
2001-12-31, 01:39:00,VALID,918.63,VALID,0,VALID,95.7315,VALID,-0.101885,VALID,19.3401,VALID,128,VALID,0.386418,
2001-12-31, 01:40:00,VALID,918.634,VALID,0,VALID,95.7569,VALID,-0.101885,VALID,19.3344,VALID,141,VALID,0.423725,
2001-12-31, 01:41:00,VALID,918.632,VALID,0,VALID,95.809,VALID,-0.118866,VALID,19.3344,VALID,145,VALID,0.451322,
2001-12-31, 01:42:00,VALID,918.639,VALID,0,VALID,95.8396,VALID,-0.101885,VALID,19.3347,VALID,158,VALID,0.365039,
2001-12-31, 01:43:00,VALID,918.639,VALID,0,VALID,95.8243,VALID,-0.101885,VALID,19.3339,VALID,163,VALID,0.707981,
2001-12-31, 01:44:00,VALID,918.634,VALID,0,VALID,95.8421,VALID,-0.0849042,VALID,19.3342,VALID,152,VALID,1.01738,
2001-12-31, 01:45:00,VALID,918.639,VALID,0,VALID,95.8281,VALID,-0.0679233,VALID,19.3376,VALID,145,VALID,1.07792,
2001-12-31, 01:46:00,VALID,918.627,VALID,0,VALID,95.8014,VALID,-0.0849042,VALID,19.3535,VALID,153,VALID,1.13651,
2001-12-31, 01:47:00,VALID,918.622,VALID,0,VALID,95.7289,VALID,-0.0849042,VALID,19.3498,VALID,146,VALID,1.55649,
2001-12-31, 01:48:00,VALID,918.625,VALID,0,VALID,95.6641,VALID,-0.0509425,VALID,19.3662,VALID,140,VALID,0.916324,
2001-12-31, 01:49:00,VALID,918.6,VALID,0,VALID,95.5865,VALID,-0.101885,VALID,19.3859,VALID,137,VALID,0.904848,
2001-12-31, 01:50:00,VALID,918.565,VALID,0,VALID,95.4962,VALID,-0.101885,VALID,19.3923,VALID,122,VALID,1.3,
2001-12-31, 01:51:00,VALID,918.569,VALID,0,VALID,95.4479,VALID,-0.101885,VALID,19.4082,VALID,122,VALID,1.30258,
2001-12-31, 01:52:00,VALID,918.565,VALID,0,VALID,95.3907,VALID,-0.0849042,VALID,19.4251,VALID,129,VALID,1.10801,
2001-12-31, 01:53:00,VALID,918.542,VALID,0,VALID,95.3716,VALID,-0.0849042,VALID,19.4246,VALID,125,VALID,1.21274,
2001-12-31, 01:54:00,VALID,918.537,VALID,0,VALID,95.3602,VALID,-0.101885,VALID,19.4211,VALID,127,VALID,1.35691,
2001-12-31, 01:55:00,VALID,918.521,VALID,0,VALID,95.3207,VALID,-0.101885,VALID,19.4313,VALID,134,VALID,1.02364,
2001-12-31, 01:56:00,VALID,918.518,VALID,0,VALID,95.2788,VALID,-0.0849042,VALID,19.4341,VALID,137,VALID,0.955387,
2001-12-31, 01:57:00,VALID,918.509,VALID,0,VALID,95.2178,VALID,-0.0679233,VALID,19.4442,VALID,148,VALID,0.942909,
2001-12-31, 01:58:00,VALID,918.508,VALID,0,VALID,95.247,VALID,-0.101885,VALID,19.4572,VALID,90,VALID,0.668945,
2001-12-31, 01:59:00,VALID,918.509,VALID,0,VALID,95.1427,VALID,-0.0509425,VALID,19.4537,VALID,120,VALID,0.874789,
2001-12-31, 02:00:00,VALID,918.505,VALID,0,VALID,95.1847,VALID,-0.101885,VALID,19.444,VALID,122,VALID,0.855273,
2001-12-31, 02:01:00,VALID,918.496,VALID,0,VALID,95.0906,VALID,-0.101885,VALID,19.4505,VALID,120,VALID,1.01502,
2001-12-31, 02:02:00,VALID,918.498,VALID,0,VALID,95.0664,VALID,-0.101885,VALID,19.45,VALID,141,VALID,0.698602,
2001-12-31, 02:03:00,VALID,918.502,VALID,0,VALID,95.0779,VALID,-0.101885,VALID,19.4733,VALID,100,VALID,0.371394,
2001-12-31, 02:04:00,VALID,918.501,VALID,0,VALID,95.1275,VALID,-0.118866,VALID,19.4631,VALID,129,VALID,0.581209,
2001-12-31, 02:05:00,VALID,918.508,VALID,0,VALID,95.0728,VALID,-0.101885,VALID,19.4599,VALID,134,VALID,1.01883,
2001-12-31, 02:06:00,VALID,918.499,VALID,0,VALID,95.0664,VALID,-0.0509425,VALID,19.4728,VALID,121,VALID,0.93457,
2001-12-31, 02:07:00,VALID,918.496,VALID,0,VALID,95.0728,VALID,0.0339617,VALID,19.4781,VALID,140,VALID,0.563556,
2001-12-31, 02:08:00,VALID,918.491,VALID,0,VALID,95.0766,VALID,0.0169808,VALID,19.4778,VALID,125,VALID,0.746094,
2001-12-31, 02:09:00,VALID,918.479,VALID,0,VALID,95.0435,VALID,0.0169808,VALID,19.4811,VALID,135,VALID,0.740184,
2001-12-31, 02:10:00,VALID,918.47,VALID,0,VALID,95.1109,VALID,0.0509425,VALID,19.484,VALID,141,VALID,0.23602,
2001-12-31, 02:11:00,VALID,918.491,VALID,0,VALID,95.1236,VALID,0.0169808,VALID,19.4935,VALID,139,VALID,0.183093,
2001-12-31, 02:12:00,VALID,918.493,VALID,0,VALID,95.1491,VALID,0,VALID,19.5104,VALID,145,VALID,0.233964,
2001-12-31, 02:13:00,VALID,918.474,VALID,0,VALID,95.158,VALID,0,VALID,19.5007,VALID,158,VALID,0.563101,
2001-12-31, 02:14:00,VALID,918.489,VALID,0,VALID,95.1135,VALID,0.0509425,VALID,19.4972,VALID,155,VALID,0.931836,
2001-12-31, 02:15:00,VALID,918.49,VALID,0,VALID,95.0702,VALID,0,VALID,19.5012,VALID,166,VALID,0.694046,
2001-12-31, 02:16:00,VALID,918.496,VALID,0,VALID,95.0359,VALID,0.0169808,VALID,19.4999,VALID,162,VALID,0.837305,
2001-12-31, 02:17:00,VALID,918.489,VALID,0,VALID,95.0448,VALID,0,VALID,19.5039,VALID,160,VALID,0.588742,
2001-12-31, 02:18:00,VALID,918.488,VALID,0,VALID,95.1249,VALID,0,VALID,19.5037,VALID,165,VALID,0.825452,
2001-12-31, 02:19:00,VALID,918.495,VALID,0,VALID,95.0334,VALID,0,VALID,19.4972,VALID,167,VALID,0.880409,
2001-12-31, 02:20:00,VALID,918.481,VALID,0,VALID,95.0677,VALID,0.0169808,VALID,19.4972,VALID,170,VALID,0.751439,
2001-12-31, 02:21:00,VALID,918.485,VALID,0,VALID,95.0944,VALID,0,VALID,19.5171,VALID,171,VALID,0.811498,
2001-12-31, 02:22:00,VALID,918.494,VALID,0,VALID,95.1071,VALID,0.0169808,VALID,19.5101,VALID,174,VALID,0.904688,
2001-12-31, 02:23:00,VALID,918.494,VALID,0,VALID,95.0677,VALID,0,VALID,19.497,VALID,173,VALID,1.00591,
2001-12-31, 02:24:00,VALID,918.498,VALID,0,VALID,95.1338,VALID,0,VALID,19.494,VALID,162,VALID,0.634766,
2001-12-31, 02:25:00,VALID,918.506,VALID,0,VALID,95.2292,VALID,0,VALID,19.497,VALID,160,VALID,0.486579,
2001-12-31, 02:26:00,VALID,918.495,VALID,0,VALID,95.2648,VALID,0,VALID,19.5106,VALID,158,VALID,0.561266,
2001-12-31, 02:27:00,VALID,918.504,VALID,0,VALID,95.2877,VALID,0.0169808,VALID,19.4878,VALID,145,VALID,0.657252,
2001-12-31, 02:28:00,VALID,918.485,VALID,0,VALID,95.3869,VALID,0,VALID,19.4875,VALID,135,VALID,0.605263,
2001-12-31, 02:29:00,VALID,918.489,VALID,0,VALID,95.4632,VALID,0,VALID,19.4679,VALID,129,VALID,0.390024,
2001-12-31, 02:30:00,VALID,918.478,VALID,0,VALID,95.5776,VALID,0,VALID,19.4679,VALID,110,VALID,0.645898,
2001-12-31, 02:31:00,VALID,918.468,VALID,0,VALID,95.7277,VALID,0,VALID,19.4517,VALID,132,VALID,0.478463,
2001-12-31, 02:32:00,VALID,918.474,VALID,0,VALID,95.8179,VALID,0.0339617,VALID,19.4557,VALID,140,VALID,0.667969,
2001-12-31, 02:33:00,VALID,918.463,VALID,0,VALID,95.8866,VALID,0,VALID,19.4455,VALID,145,VALID,0.278446,
2001-12-31, 02:34:00,VALID,918.466,VALID,0,VALID,95.9019,VALID,0,VALID,19.4388,VALID,125,VALID,0.642064,
2001-12-31, 02:35:00,VALID,918.472,VALID,0,VALID,95.9527,VALID,0,VALID,19.4358,VALID,110,VALID,0.386218,
2001-12-31, 02:36:00,VALID,918.474,VALID,0,VALID,95.9566,VALID,-0.0169808,VALID,19.4363,VALID,102,VALID,0.603002,
2001-12-31, 02:37:00,VALID,918.454,VALID,0,VALID,95.8714,VALID,-0.101885,VALID,19.4209,VALID,99,VALID,0.834335,
2001-12-31, 02:38:00,VALID,918.462,VALID,0,VALID,95.9337,VALID,-0.0509425,VALID,19.4308,VALID,74,VALID,0.316797,
2001-12-31, 02:39:00,VALID,918.451,VALID,0,VALID,95.8294,VALID,-0.101885,VALID,19.4408,VALID,128,VALID,0.687711,
2001-12-31, 02:40:00,VALID,918.445,VALID,0,VALID,95.8574,VALID,-0.101885,VALID,19.4442,VALID,135,VALID,0.169336,
2001-12-31, 02:41:00,VALID,918.438,VALID,0,VALID,95.9476,VALID,-0.0679233,VALID,19.4336,VALID,123,VALID,0.119391,
2001-12-31, 02:42:00,VALID,918.423,VALID,0,VALID,95.9095,VALID,-0.0679233,VALID,19.4403,VALID,112,VALID,0.883635,
2001-12-31, 02:43:00,VALID,918.422,VALID,0,VALID,95.8904,VALID,-0.0849042,VALID,19.437,VALID,110,VALID,0.675681,
2001-12-31, 02:44:00,VALID,918.413,VALID,0,VALID,95.9426,VALID,-0.101885,VALID,19.4467,VALID,134,VALID,1.0366,
2001-12-31, 02:45:00,VALID,918.402,VALID,0,VALID,95.9222,VALID,-0.101885,VALID,19.4408,VALID,131,VALID,1.22536,
2001-12-31, 02:46:00,VALID,918.393,VALID,0,VALID,95.8345,VALID,-0.101885,VALID,19.4475,VALID,123,VALID,1.16113,
2001-12-31, 02:47:00,VALID,918.386,VALID,0,VALID,95.7213,VALID,-0.101885,VALID,19.4343,VALID,116,VALID,0.790118,
2001-12-31, 02:48:00,VALID,918.375,VALID,0,VALID,95.7035,VALID,-0.101885,VALID,19.4467,VALID,117,VALID,0.804883,
2001-12-31, 02:49:00,VALID,918.359,VALID,0,VALID,95.6679,VALID,-0.101885,VALID,19.4636,VALID,131,VALID,1.16006,
2001-12-31, 02:50:00,VALID,918.349,VALID,0,VALID,95.5535,VALID,-0.101885,VALID,19.4636,VALID,127,VALID,0.979852,
2001-12-31, 02:51:00,VALID,918.355,VALID,0,VALID,95.5407,VALID,-0.0339617,VALID,19.4624,VALID,121,VALID,0.838141,
2001-12-31, 02:52:00,VALID,918.344,VALID,0,VALID,95.3678,VALID,0.101885,VALID,19.4639,VALID,139,VALID,1.10814,
2001-12-31, 02:53:00,VALID,918.338,VALID,0,VALID,95.2165,VALID,0.101885,VALID,19.4833,VALID,136,VALID,0.990785,
2001-12-31, 02:54:00,VALID,918.333,VALID,0,VALID,95.1643,VALID,0.101885,VALID,19.4994,VALID,136,VALID,0.995117,
2001-12-31, 02:55:00,VALID,918.32,VALID,0,VALID,95.0257,VALID,0.101885,VALID,19.5089,VALID,126,VALID,0.6231,
2001-12-31, 02:56:00,VALID,918.333,VALID,0,VALID,95.0893,VALID,0.118866,VALID,19.525,VALID,118,VALID,0.782227,
2001-12-31, 02:57:00,VALID,918.337,VALID,0,VALID,95.0893,VALID,0.118866,VALID,19.5313,VALID,141,VALID,1.07492,
2001-12-31, 02:58:00,VALID,918.342,VALID,0,VALID,95.0766,VALID,0.101885,VALID,19.5342,VALID,131,VALID,0.625617,
2001-12-31, 02:59:00,VALID,918.347,VALID,0,VALID,95.1326,VALID,0.101885,VALID,19.5375,VALID,130,VALID,0.641827,
2001-12-31, 03:00:00,VALID,918.344,VALID,0,VALID,95.1415,VALID,0.101885,VALID,19.5347,VALID,111,VALID,0.353618,
2001-12-31, 03:01:00,VALID,918.354,VALID,0,VALID,95.1453,VALID,0.101885,VALID,19.5248,VALID,130,VALID,0.590946,
2001-12-31, 03:02:00,VALID,918.355,VALID,0,VALID,95.1949,VALID,0.118866,VALID,19.5183,VALID,107,VALID,0.801758,
2001-12-31, 03:03:00,VALID,918.364,VALID,0,VALID,95.2381,VALID,0.101885,VALID,19.5318,VALID,146,VALID,0.772171,
2001-12-31, 03:04:00,VALID,918.374,VALID,0,VALID,95.1821,VALID,0.101885,VALID,19.5151,VALID,138,VALID,0.89043,
2001-12-31, 03:05:00,VALID,918.386,VALID,0,VALID,95.2292,VALID,0.101885,VALID,19.5221,VALID,143,VALID,0.697917,
2001-12-31, 03:06:00,VALID,918.393,VALID,0,VALID,95.2915,VALID,0.0679233,VALID,19.5124,VALID,152,VALID,0.909334,
2001-12-31, 03:07:00,VALID,918.383,VALID,0,VALID,95.2762,VALID,0,VALID,19.5163,VALID,148,VALID,0.895032,
2001-12-31, 03:08:00,VALID,918.389,VALID,0,VALID,95.3373,VALID,0,VALID,19.5032,VALID,152,VALID,1.03865,
2001-12-31, 03:09:00,VALID,918.385,VALID,0,VALID,95.3576,VALID,0,VALID,19.4967,VALID,154,VALID,1.33173,
2001-12-31, 03:10:00,VALID,918.373,VALID,0,VALID,95.3691,VALID,0,VALID,19.5042,VALID,153,VALID,1.17324,
2001-12-31, 03:11:00,VALID,918.38,VALID,0,VALID,95.3907,VALID,0,VALID,19.4972,VALID,150,VALID,1.18328,
2001-12-31, 03:12:00,VALID,918.377,VALID,0,VALID,95.4174,VALID,0.0169808,VALID,19.4873,VALID,153,VALID,1.02031,
2001-12-31, 03:13:00,VALID,918.38,VALID,0,VALID,95.4365,VALID,0.0169808,VALID,19.4937,VALID,149,VALID,1.21374,
2001-12-31, 03:14:00,VALID,918.37,VALID,0,VALID,95.4428,VALID,0,VALID,19.4945,VALID,154,VALID,1.15173,
2001-12-31, 03:15:00,VALID,918.369,VALID,0,VALID,95.4021,VALID,0,VALID,19.4942,VALID,158,VALID,1.26002,
2001-12-31, 03:16:00,VALID,918.365,VALID,0,VALID,95.3716,VALID,0,VALID,19.4875,VALID,159,VALID,0.924753,
2001-12-31, 03:17:00,VALID,918.367,VALID,0,VALID,95.3792,VALID,0,VALID,19.4873,VALID,157,VALID,0.717949,
2001-12-31, 03:18:00,VALID,918.376,VALID,0,VALID,95.411,VALID,0,VALID,19.5037,VALID,159,VALID,0.998828,
2001-12-31, 03:19:00,VALID,918.378,VALID,0,VALID,95.4059,VALID,0,VALID,19.4977,VALID,137,VALID,0.953125,
2001-12-31, 03:20:00,VALID,918.383,VALID,0,VALID,95.3805,VALID,0.0169808,VALID,19.4905,VALID,153,VALID,1.44707,
2001-12-31, 03:21:00,VALID,918.379,VALID,0,VALID,95.2394,VALID,0,VALID,19.4878,VALID,158,VALID,1.13161,
2001-12-31, 03:22:00,VALID,918.396,VALID,0,VALID,95.2152,VALID,-0.0169808,VALID,19.4942,VALID,147,VALID,1.14576,
2001-12-31, 03:23:00,VALID,918.394,VALID,0,VALID,95.2203,VALID,0,VALID,19.5039,VALID,148,VALID,0.830128,
2001-12-31, 03:24:00,VALID,918.382,VALID,0,VALID,95.2572,VALID,0,VALID,19.5106,VALID,160,VALID,0.95477,
2001-12-31, 03:25:00,VALID,918.381,VALID,0,VALID,95.2813,VALID,-0.0169808,VALID,19.5173,VALID,152,VALID,0.785457,
2001-12-31, 03:26:00,VALID,918.382,VALID,0,VALID,95.2394,VALID,-0.0339617,VALID,19.5111,VALID,156,VALID,0.768359,
2001-12-31, 03:27:00,VALID,918.372,VALID,0,VALID,95.3131,VALID,0,VALID,19.5141,VALID,145,VALID,0.292441,
2001-12-31, 03:28:00,VALID,918.365,VALID,0,VALID,95.2139,VALID,-0.0169808,VALID,19.5007,VALID,165,VALID,1.18008,
2001-12-31, 03:29:00,VALID,918.351,VALID,0,VALID,95.1275,VALID,0,VALID,19.5044,VALID,157,VALID,1.09756,
2001-12-31, 03:30:00,VALID,918.341,VALID,0,VALID,95.1771,VALID,-0.0169808,VALID,19.5044,VALID,171,VALID,0.826275,
2001-12-31, 03:31:00,VALID,918.34,VALID,0,VALID,95.2076,VALID,-0.0169808,VALID,19.5042,VALID,147,VALID,0.47476,
2001-12-31, 03:32:00,VALID,918.316,VALID,0,VALID,95.2712,VALID,0,VALID,19.5109,VALID,147,VALID,0.469572,
2001-12-31, 03:33:00,VALID,918.318,VALID,0,VALID,95.3424,VALID,0,VALID,19.5039,VALID,127,VALID,0.492788,